Weather reports worldwide

Advertisment
Poughkeepsie, ny, United States of America (2074797): temperature & dewpoint: 20.03.2019 15:00:00 - 26.03.2019 15:00:00 (EDT)Poughkeepsie, ny, United States of America (2074797): wind speed & gusts: 20.03.2019 15:00:00 - 26.03.2019 15:00:00 (EDT)Poughkeepsie, ny, United States of America (2074797): wind direction: 20.03.2019 15:00:00 - 26.03.2019 15:00:00 (EDT)Poughkeepsie, ny, United States of America (2074797): reduced air pressure: 20.03.2019 15:00:00 - 26.03.2019 15:00:00 (EDT)Poughkeepsie, ny, United States of America (2074797): visibility: 20.03.2019 15:00:00 - 26.03.2019 15:00:00 (EDT)Poughkeepsie, ny, United States of America (2074797): precipitation: 20.03.2019 15:00:00 - 26.03.2019 15:00:00 (EDT)
Date & Time tt [°C] td [°C] ff [km/h] ff [kn] fx [km/h] fx [kn] dd ppp [hPa] vv [km] rr [mm]
26.03.2019 15:00:00 7,2 -16,7 11 6 - - NW 1024,5 16 -
26.03.2019 14:00:00 6,7 -15,6 18 10 - - NNW 1025,3 16 -
26.03.2019 13:00:00 5,6 -14,4 5 3 - - - 1025,8 16 -
26.03.2019 12:00:00 3,9 -14,4 22 12 - - NNE 1026,2 16 -
26.03.2019 11:00:00 3,3 -15,0 24 13 - - N 1026,1 16 -
26.03.2019 10:00:00 2,2 -12,8 15 8 - - N 1025,6 16 -
26.03.2019 09:00:00 0,0 -12,2 18 10 - - N 1025,1 16 -
26.03.2019 08:00:00 -1,7 -12,8 8 4 - - N 1024,6 16 -
26.03.2019 07:00:00 -3,3 -13,3 8 4 - - NNE 1023,5 16 -
26.03.2019 06:00:00 -2,2 -12,8 15 8 - - N 1022,5 16 -
26.03.2019 05:00:00 -1,1 -13,3 18 10 - - N 1021,7 16 -
26.03.2019 04:00:00 -1,1 -15,0 18 10 - - N 1021,3 16 -
26.03.2019 03:00:00 -0,6 -15,0 18 10 - - N 1021,4 16 -
26.03.2019 02:00:00 -1,7 -13,3 9 5 - - N 1021,0 16 -
26.03.2019 01:00:00 -2,8 -10,6 8 4 - - N 1020,5 10 -
26.03.2019 00:00:00 -2,2 -10,0 0 0 - - N 1019,9 10 -
25.03.2019 23:00:00 -1,1 -10,6 0 0 - - N 1019,4 16 -
25.03.2019 22:00:00 1,1 -12,8 0 0 - - N 1019,2 16 -
25.03.2019 21:00:00 3,3 -15,6 5 3 - - NNE 1018,6 16 -
25.03.2019 20:00:00 5,6 -16,7 11 6 - - N 1018,3 16 -
25.03.2019 19:00:00 6,7 -16,1 21 11 - - NNE 1016,9 16 -
25.03.2019 18:00:00 8,9 -15,0 9 5 - - NE 1016,6 16 -
25.03.2019 17:00:00 9,4 -15,6 0 0 - - N 1016,9 16 -
25.03.2019 16:00:00 9,4 -13,9 5 3 - - - 1016,9 16 -
25.03.2019 15:00:00 10,0 -10,0 16 9 - - N 1017,1 16 -
25.03.2019 14:00:00 8,9 -8,3 8 4 - - - 1018,0 16 -
25.03.2019 13:00:00 8,3 -5,0 11 6 - - NNW 1018,8 16 -
25.03.2019 12:00:00 6,7 -3,9 16 9 - - N 1019,3 16 -
25.03.2019 11:00:00 6,7 -3,3 13 7 - - N 1019,1 16 -
25.03.2019 10:00:00 6,7 -3,3 24 13 - - NNE 1018,4 16 -
25.03.2019 09:00:00 6,7 -2,8 16 9 - - N 1017,7 16 -
25.03.2019 08:00:00 7,2 -3,3 15 8 - - NNW 1017,0 16 -
25.03.2019 07:00:00 7,8 -2,8 8 4 - - N 1016,3 16 -
25.03.2019 06:00:00 8,3 -2,8 18 10 - - WNW 1015,7 16 -
25.03.2019 05:00:00 8,9 -3,3 11 6 - - WSW 1015,5 16 -
25.03.2019 04:00:00 9,4 -4,4 16 9 - - W 1015,3 16 -
25.03.2019 03:00:00 8,3 -4,4 9 5 - - WSW 1015,7 16 -
25.03.2019 02:00:00 10,0 -6,1 5 3 - - SW 1015,9 16 -
25.03.2019 01:00:00 10,0 -6,1 8 4 - - SW 1016,1 16 -
25.03.2019 00:00:00 9,4 -5,6 0 0 - - N 1016,2 16 -
24.03.2019 23:00:00 10,0 -5,6 5 3 - - SSW 1016,5 16 -
24.03.2019 22:00:00 10,6 -6,7 0 0 - - N 1016,6 16 -
24.03.2019 21:00:00 11,7 -7,8 5 3 - - W 1016,2 16 -
24.03.2019 20:00:00 12,2 -8,9 13 7 - - W 1015,9 16 -
24.03.2019 19:00:00 13,3 -11,7 21 11 - - W 1015,3 16 -
24.03.2019 18:00:00 14,4 -11,1 16 9 - - WSW 1014,9 16 -
24.03.2019 17:00:00 14,4 -12,2 22 12 - - WSW 1014,7 16 -
24.03.2019 16:00:00 15,0 -10,6 21 11 - - WSW 1015,2 16 -
24.03.2019 15:00:00 13,9 -11,1 16 9 - - SW 1016,2 16 -
24.03.2019 14:00:00 13,3 -10,6 24 13 - - WSW 1017,2 16 -
24.03.2019 13:00:00 12,2 -8,9 18 10 - - WSW 1018,5 16 -
24.03.2019 12:00:00 10,6 -8,9 18 10 - - SW 1019,5 16 -
24.03.2019 11:00:00 7,2 -8,3 16 9 - - SSW 1020,6 16 -
24.03.2019 10:00:00 5,0 -8,3 13 7 - - SW 1021,2 16 -
24.03.2019 09:00:00 1,7 -6,1 0 0 - - N 1022,0 10 -
24.03.2019 08:00:00 -3,3 -7,2 0 0 - - N 1022,2 16 -
24.03.2019 07:00:00 -5,0 -8,3 0 0 - - N 1021,5 16 -
24.03.2019 06:00:00 -5,6 -8,3 0 0 - - N 1021,0 16 -
24.03.2019 05:00:00 -5,0 -8,3 0 0 - - N 1020,9 16 -
24.03.2019 04:00:00 -4,4 -8,3 0 0 - - N 1020,5 16 -
24.03.2019 03:00:00 -3,3 -7,8 0 0 - - N 1020,4 16 -
24.03.2019 02:00:00 -2,8 -8,3 0 0 - - N 1019,7 16 -
24.03.2019 01:00:00 -1,1 -8,3 0 0 - - N 1019,4 16 -
24.03.2019 00:00:00 0,6 -10,0 5 3 - - SW 1019,3 16 -
23.03.2019 23:00:00 1,7 -10,6 11 6 - - W 1019,1 16 -
23.03.2019 22:00:00 2,2 -11,7 15 8 - - W 1018,9 16 -
23.03.2019 21:00:00 2,8 -12,2 16 9 - - WNW 1018,2 16 -
23.03.2019 20:00:00 3,3 -12,2 18 10 - - W 1017,3 16 -
23.03.2019 19:00:00 5,0 -11,7 28 15 - - WNW 1015,8 16 -
23.03.2019 18:00:00 7,2 -9,4 28 15 - - W 1014,6 16 -
23.03.2019 17:00:00 7,2 -7,2 26 14 - - W 1013,4 16 -
23.03.2019 16:00:00 8,3 -6,1 26 14 - - W 1012,7 16 -
23.03.2019 15:00:00 8,3 -5,0 28 15 - - W 1011,8 16 -
23.03.2019 14:00:00 6,7 -5,0 21 11 - - W 1011,6 16 -
23.03.2019 13:00:00 4,4 -5,6 24 13 - - W 1009,8 16 -
23.03.2019 12:00:00 4,4 -5,6 24 13 - - W 1009,8 16 -
23.03.2019 11:00:00 1,7 -6,7 18 10 - - WNW 1009,3 16 -
23.03.2019 10:00:00 1,1 -6,7 22 12 - - W 1008,1 16 -
23.03.2019 09:00:00 1,1 -7,2 18 10 - - WNW 1006,6 16 -
23.03.2019 08:00:00 0,6 -7,2 24 13 - - WNW 1005,4 16 -
23.03.2019 07:00:00 0,6 -7,2 24 13 - - W 1004,0 16 -
23.03.2019 06:00:00 0,6 -7,8 24 13 - - W 1002,9 16 -
23.03.2019 05:00:00 0,6 -7,2 26 14 - - W 1001,6 16 -
23.03.2019 04:00:00 1,1 -7,2 28 15 - - W 1000,6 16 0,0
23.03.2019 03:00:00 1,7 -6,7 29 16 57 31 W 1000,0 15 0,0
23.03.2019 02:00:00 2,2 -5,6 28 15 52 28 W 999,1 16 -
23.03.2019 01:00:00 2,8 -5,6 24 13 55 30 W 998,2 13 -
23.03.2019 00:00:00 3,3 -4,4 29 16 55 30 W 997,6 16 -
22.03.2019 23:00:00 4,4 -2,2 34 18 54 29 W 996,6 16 -
22.03.2019 22:00:00 5,0 -1,7 22 12 50 27 W 996,3 16 -
22.03.2019 21:00:00 5,6 -1,7 24 13 - - W 996,0 16 -
22.03.2019 20:00:00 5,6 -1,7 31 17 48 26 W 995,2 16 -
22.03.2019 19:00:00 6,7 -1,7 22 12 52 28 WNW 994,3 16 -
22.03.2019 18:00:00 7,2 -1,7 29 16 - - W 993,3 16 -
22.03.2019 17:00:00 7,2 -0,6 26 14 - - W 992,8 16 -
22.03.2019 16:00:00 6,1 0,6 18 10 52 28 W 992,8 16 -
22.03.2019 15:00:00 7,2 0,6 22 12 - - W 992,1 16 -
22.03.2019 14:00:00 5,0 2,8 5 3 - - SW 992,3 16 -
22.03.2019 13:00:00 5,0 2,2 8 4 - - NNW 992,8 16 0,0
22.03.2019 12:00:00 3,9 1,7 15 8 - - NNW 993,5 10 0,5
22.03.2019 11:00:00 2,8 1,1 16 9 - - N 994,1 11 0,5
22.03.2019 10:00:00 3,3 1,1 16 9 - - N 994,4 11 0,8
22.03.2019 09:00:00 3,3 1,1 16 9 - - N 994,7 4,0 1,0
22.03.2019 08:00:00 2,8 0,6 21 11 - - N 994,7 4,0 0,5
22.03.2019 07:00:00 3,9 2,2 16 9 - - N 994,4 8 1,0
22.03.2019 06:00:00 3,9 2,2 18 10 - - N 994,6 6 1,3
22.03.2019 05:00:00 4,4 2,8 16 9 - - N 995,1 10 0,3
22.03.2019 04:00:00 4,4 2,8 16 9 - - N 996,1 8 3,3
22.03.2019 03:00:00 4,4 3,3 21 11 - - N 998,2 6 2,0
22.03.2019 02:00:00 4,4 2,8 13 7 - - N 1000,8 8 2,0
22.03.2019 01:00:00 5,6 2,2 9 5 - - NNW 1003,0 16 0,0
22.03.2019 00:00:00 6,7 2,2 11 6 - - NE 1004,7 16 -
21.03.2019 23:00:00 6,7 1,7 13 7 - - NE 1006,4 16 -
21.03.2019 22:00:00 6,7 1,1 11 6 - - NE 1007,8 16 -
21.03.2019 21:00:00 6,7 1,1 9 5 - - NE 1009,2 16 -
21.03.2019 20:00:00 6,1 2,2 8 4 - - N 1010,0 16 -
21.03.2019 19:00:00 7,2 2,2 5 3 - - ENE 1011,0 16 -
21.03.2019 18:00:00 7,2 2,8 11 6 - - ENE 1012,4 16 -
21.03.2019 17:00:00 7,2 3,3 11 6 - - E 1013,4 10 -
21.03.2019 16:00:00 7,2 3,3 9 5 - - ENE 1014,2 16 0,5
21.03.2019 15:00:00 7,2 4,4 9 5 - - E 1015,7 13 0,0
21.03.2019 14:00:00 7,2 4,4 8 4 - - ENE 1016,5 11 0,0
21.03.2019 13:00:00 6,7 3,9 9 5 - - SSE 1017,9 8 1,3
21.03.2019 12:00:00 6,7 3,9 11 6 - - ESE 1018,7 8 0,8
21.03.2019 11:00:00 5,6 3,3 8 4 - - E 1019,6 10 0,0
21.03.2019 10:00:00 5,0 2,8 11 6 - - E 1020,3 8 0,0
21.03.2019 09:00:00 3,9 2,2 0 0 - - N 1020,9 4,0 0,3
21.03.2019 08:00:00 3,9 1,7 0 0 - - N 1020,7 8 0,0
21.03.2019 07:00:00 4,4 0,6 5 3 - - ENE 1021,1 16 0,0
21.03.2019 06:00:00 3,9 -1,1 5 3 - - ESE 1021,5 16 -
21.03.2019 05:00:00 5,0 -1,1 0 0 - - N 1021,5 16 -
21.03.2019 04:00:00 4,4 -1,1 0 0 - - N 1022,1 16 -
21.03.2019 03:00:00 3,3 -1,1 0 0 - - N 1022,9 16 -
21.03.2019 02:00:00 3,3 -1,1 5 3 - - E 1023,6 16 -
21.03.2019 01:00:00 5,0 -1,1 0 0 - - N 1024,2 16 -
21.03.2019 00:00:00 5,6 -1,1 8 4 - - S 1024,4 16 -
20.03.2019 23:00:00 6,1 -1,1 11 6 - - S 1024,6 16 -
20.03.2019 22:00:00 6,7 -2,8 8 4 - - S 1024,7 16 -
20.03.2019 21:00:00 6,7 -6,7 9 5 - - - 1024,8 16 -
20.03.2019 20:00:00 7,8 -7,8 15 8 - - S 1024,1 16 -
20.03.2019 19:00:00 8,9 -7,2 18 10 - - S 1023,8 16 -
20.03.2019 18:00:00 10,6 -7,2 13 7 - - S 1023,5 16 -
20.03.2019 17:00:00 11,7 -8,9 15 8 - - S 1023,4 16 -
20.03.2019 16:00:00 12,2 -8,3 9 5 - - - 1023,8 16 -
20.03.2019 15:00:00 11,7 -8,3 16 9 - - WSW 1024,5 16 -

tt = temperature
td = dewpoint
ff = wind speed
fx = gusts
dd = wind direction
ppp = reduced air pressure
vv = visibility
rr = precipitation

Next stations